Location: Unspecified
(0.0000°N, 0.0000°E)
Time: 04:18:58
(UTC+00:00)

STARLINK-1063 - Pass Details

Date: 23 January 2020
Orbit: 548 x 551 km, 53.0° (Epoch: 02 December)

Event Time Altitude Azimuth Distance (km) Brightness Sun altitude
Exits shadow 03:53:23 21° 91° (E) 1,268 6.0 -32.3°
Drops below altitude 10° 03:55:24 10° 67° (ENE) 1,833 6.7 -31.8°
Sets 03:57:54 0° 54° (NE) 2,726 7.5 -31.3°
